| time (UTC) | temp C | wind direction | speed KPH | gust KPH | rain 1hr cm | rain 24hr cm | rain mn cm | humidity % | barometer mb |
| 20260506185049 | 18 | 26 | 1.6 | 11.3 | 0.00 | 0.00 | 0.00 | 77 | 1022.4 |
| 20260506184556 | 18 | 322 | 1.6 | 11.3 | 0.00 | 0.00 | 0.00 | 75 | 1022.5 |
| 20260506184048 | 18 | 327 | 3.2 | 11.3 | 0.00 | 0.00 | 0.00 | 75 | 1022.4 |
| 20260506183549 | 18 | 305 | 1.6 | 9.7 | 0.00 | 0.00 | 0.00 | 75 | 1022.5 |
| 20260506183100 | 18 | 75 | 3.2 | 9.7 | 0.00 | 0.00 | 0.00 | 77 | 1022.5 |
| 20260506182547 | 18 | 340 | 1.6 | 9.7 | 0.00 | 0.00 | 0.00 | 75 | 1022.5 |
| 20260506182048 | 18 | 25 | 1.6 | 9.7 | 0.00 | 0.00 | 0.00 | 76 | 1022.5 |
| 20260506181551 | 18 | 294 | 1.6 | 9.7 | 0.00 | 0.00 | 0.00 | 75 | 1022.5 |
| 20260506181049 | 18 | 57 | 4.8 | 9.7 | 0.00 | 0.00 | 0.00 | 74 | 1022.5 |
| 20260506180549 | 18 | 58 | 1.6 | 6.4 | 0.00 | 0.00 | 0.00 | 74 | 1022.4 |
| 20260506180055 | 18 | 37 | 0.0 | 6.4 | 0.00 | 0.00 | 0.00 | 77 | 1022.4 |
| 20260506175551 | 17 | 0 | 1.6 | 6.4 | 0.00 | 0.00 | 0.00 | 76 | 1022.4 |
| 20260506175054 | 18 | 48 | 3.2 | 6.4 | 0.00 | 0.00 | 0.00 | 73 | 1022.4 |
| 20260506174553 | 18 | 35 | 1.6 | 4.8 | 0.00 | 0.00 | 0.00 | 75 | 1022.4 |
| 20260506174053 | 18 | 347 | 1.6 | 4.8 | 0.00 | 0.00 | 0.00 | 76 | 1022.3 |
| 20260506173553 | 18 | 54 | 0.0 | 6.4 | 0.00 | 0.00 | 0.00 | 76 | 1022.3 |
| 20260506173054 | 17 | 353 | 0.0 | 6.4 | 0.00 | 0.00 | 0.00 | 78 | 1022.3 |
| 20260506172553 | 17 | 359 | 1.6 | 6.4 | 0.00 | 0.00 | 0.00 | 78 | 1022.3 |
| 20260506172055 | 16 | 0 | 0.0 | 9.7 | 0.00 | 0.00 | 0.00 | 79 | 1022.4 |
| 20260506171559 | 16 | 314 | 1.6 | 9.7 | 0.00 | 0.00 | 0.00 | 80 | 1022.3 |
| 20260506171053 | 16 | 274 | 1.6 | 8.0 | 0.00 | 0.00 | 0.00 | 81 | 1022.4 |
| 20260506170552 | 16 | 43 | 3.2 | 8.0 | 0.00 | 0.00 | 0.00 | 80 | 1022.4 |
| 20260506170059 | 16 | 307 | 0.0 | 11.3 | 0.00 | 0.00 | 0.00 | 81 | 1022.4 |
| 20260506165553 | 15 | 341 | 1.6 | 11.3 | 0.00 | 0.00 | 0.00 | 82 | 1022.5 |
| 20260506165053 | 15 | 46 | 3.2 | 11.3 | 0.00 | 0.00 | 0.00 | 80 | 1022.4 |
| 20260506164600 | 15 | 87 | 1.6 | 9.7 | 0.00 | 0.00 | 0.00 | 84 | 1022.5 |
| 20260506164056 | 15 | 30 | 1.6 | 9.7 | 0.00 | 0.00 | 0.00 | 83 | 1022.5 |
| 20260506163555 | 15 | 41 | 1.6 | 6.4 | 0.00 | 0.00 | 0.00 | 82 | 1022.5 |
| 20260506163103 | 15 | 332 | 1.6 | 6.4 | 0.00 | 0.00 | 0.00 | 85 | 1022.6 |
| 20260506162553 | 15 | 0 | 0.0 | 4.8 | 0.00 | 0.00 | 0.00 | 86 | 1022.5 |
| 20260506162053 | 14 | 68 | 0.0 | 4.8 | 0.00 | 0.00 | 0.00 | 86 | 1022.6 |
| 20260506161604 | 14 | 41 | 1.6 | 4.8 | 0.00 | 0.00 | 0.00 | 85 | 1022.5 |
| 20260506161057 | 14 | 296 | 0.0 | 4.8 | 0.00 | 0.00 | 0.00 | 86 | 1022.5 |
| 20260506160553 | 14 | 49 | 0.0 | 4.8 | 0.00 | 0.00 | 0.00 | 86 | 1022.4 |
| 20260506160053 | 14 | 49 | 1.6 | 4.8 | 0.00 | 0.00 | 0.00 | 86 | 1022.5 |
| 20260506155553 | 14 | 299 | 0.0 | 6.4 | 0.00 | 0.00 | 0.00 | 86 | 1022.4 |
| 20260506155053 | 14 | 276 | 0.0 | 8.0 | 0.00 | 0.00 | 0.00 | 86 | 1022.4 |
| 20260506154612 | 14 | 65 | 0.0 | 8.0 | 0.00 | 0.00 | 0.00 | 85 | 1022.3 |
| 20260506154053 | 14 | 44 | 0.0 | 9.7 | 0.00 | 0.00 | 0.00 | 85 | 1022.4 |
| 20260506153553 | 14 | 316 | 0.0 | 9.7 | 0.00 | 0.00 | 0.00 | 85 | 1022.4 |
| 20260506153058 | 14 | 63 | 1.6 | 4.8 | 0.00 | 0.00 | 0.00 | 85 | 1022.2 |
| 20260506152553 | 14 | 0 | 0.0 | 3.2 | 0.00 | 0.00 | 0.00 | 86 | 1022.2 |
| 20260506152053 | 14 | 82 | 0.0 | 1.6 | 0.00 | 0.00 | 0.00 | 88 | 1022.2 |
| 20260506151555 | 13 | 251 | 0.0 | 1.6 | 0.00 | 0.00 | 0.00 | 89 | 1022.1 |
| 20260506151053 | 13 | 0 | 0.0 | 1.6 | 0.00 | 0.00 | 0.00 | 89 | 1022.0 |
| 20260506150553 | 13 | 62 | 0.0 | 1.6 | 0.00 | 0.00 | 0.00 | 89 | 1022.0 |
| 20260506150100 | 13 | 0 | 0.0 | 4.8 | 0.00 | 0.00 | 0.00 | 90 | 1022.0 |
| 20260506145556 | 13 | 25 | 0.0 | 4.8 | 0.00 | 0.00 | 0.00 | 91 | 1022.0 |
| 20260506145053 | 13 | 0 | 0.0 | 1.6 | 0.00 | 0.00 | 0.00 | 91 | 1022.0 |
| 20260506144603 | 13 | 0 | 0.0 | 1.6 | 0.00 | 0.00 | 0.00 | 92 | 1022.0 |
| 20260506144053 | 12 | 0 | 0.0 | 1.6 | 0.00 | 0.00 | 0.00 | 92 | 1022.0 |
| 20260506143548 | 12 | 314 | 0.0 | 0.0 | 0.00 | 0.00 | 0.00 | 93 | 1021.9 |
| 20260506143055 | 12 | 311 | 0.0 | 0.0 | 0.00 | 0.00 | 0.00 | 93 | 1021.9 |
| 20260506142551 | 12 | 0 | 0.0 | 0.0 | 0.00 | 0.00 | 0.00 | 93 | 1022.0 |
| 20260506142050 | 12 | 0 | 0.0 | 0.0 | 0.00 | 0.00 | 0.00 | 94 | 1021.9 |
| 20260506141550 | 12 | 0 | 0.0 | 1.6 | 0.00 | 0.00 | 0.00 | 94 | 1021.8 |
| 20260506141052 | 12 | 0 | 0.0 | 1.6 | 0.00 | 0.00 | 0.00 | 94 | 1021.8 |
| 20260506140550 | 12 | 0 | 0.0 | 1.6 | 0.00 | 0.00 | 0.00 | 94 | 1021.7 |
| 20260506140112 | 12 | 0 | 0.0 | 1.6 | 0.00 | 0.00 | 0.00 | 94 | 1021.6 |
| 20260506135547 | 12 | 0 | 0.0 | 1.6 | 0.00 | 0.00 | 0.00 | 94 | 1021.6 |
| 20260506135049 | 12 | 0 | 0.0 | 1.6 | 0.00 | 0.00 | 0.00 | 94 | 1021.7 |
| 20260506134553 | 12 | 0 | 0.0 | 1.6 | 0.00 | 0.00 | 0.00 | 94 | 1021.6 |
| 20260506134050 | 12 | 0 | 0.0 | 0.0 | 0.00 | 0.00 | 0.00 | 94 | 1021.6 |
| 20260506133551 | 12 | 0 | 0.0 | 0.0 | 0.00 | 0.00 | 0.00 | 94 | 1021.6 |
| 20260506133057 | 12 | 0 | 0.0 | 0.0 | 0.00 | 0.00 | 0.00 | 94 | 1021.5 |
| 20260506132550 | 11 | 0 | 0.0 | 0.0 | 0.00 | 0.00 | 0.00 | 94 | 1021.5 |
| 20260506132050 | 11 | 0 | 0.0 | 0.0 | 0.00 | 0.00 | 0.00 | 94 | 1021.6 |
| 20260506131556 | 11 | 0 | 0.0 | 0.0 | 0.00 | 0.00 | 0.00 | 94 | 1021.6 |
| 20260506131050 | 11 | 0 | 0.0 | 0.0 | 0.00 | 0.00 | 0.00 | 94 | 1021.5 |
| 20260506130550 | 11 | 0 | 0.0 | 0.0 | 0.00 | 0.00 | 0.00 | 94 | 1021.5 |
| 20260506130059 | 11 | 0 | 0.0 | 0.0 | 0.00 | 0.00 | 0.00 | 94 | 1021.5 |
| 20260506125550 | 11 | 0 | 0.0 | 0.0 | 0.00 | 0.00 | 0.00 | 94 | 1021.4 |
| 20260506125051 | 11 | 0 | 0.0 | 0.0 | 0.00 | 0.00 | 0.00 | 94 | 1021.4 |
| 20260506124558 | 11 | 0 | 0.0 | 1.6 | 0.00 | 0.00 | 0.00 | 94 | 1021.3 |
| 20260506124048 | 11 | 0 | 0.0 | 1.6 | 0.00 | 0.00 | 0.00 | 94 | 1021.3 |
| 20260506123552 | 11 | 0 | 0.0 | 1.6 | 0.00 | 0.00 | 0.00 | 94 | 1021.3 |
| 20260506123054 | 11 | 0 | 0.0 | 0.0 | 0.00 | 0.00 | 0.00 | 94 | 1021.3 |
| 20260506122550 | 11 | 0 | 0.0 | 0.0 | 0.00 | 0.00 | 0.00 | 94 | 1021.2 |
| 20260506122049 | 11 | 0 | 0.0 | 0.0 | 0.00 | 0.00 | 0.00 | 94 | 1021.2 |
| 20260506121555 | 11 | 0 | 0.0 | 1.6 | 0.00 | 0.00 | 0.00 | 94 | 1021.3 |
| 20260506121050 | 11 | 0 | 0.0 | 1.6 | 0.00 | 0.00 | 0.00 | 95 | 1021.2 |
| 20260506120549 | 11 | 0 | 0.0 | 4.8 | 0.00 | 0.00 | 0.00 | 95 | 1021.1 |
| 20260506120052 | 11 | 0 | 0.0 | 4.8 | 0.00 | 0.00 | 0.00 | 95 | 1021.2 |
| 20260506115550 | 11 | 281 | 1.6 | 4.8 | 0.00 | 0.00 | 0.00 | 95 | 1021.1 |
| 20260506115051 | 11 | 0 | 0.0 | 0.0 | 0.00 | 0.00 | 0.00 | 95 | 1021.0 |
| 20260506114604 | 11 | 0 | 0.0 | 1.6 | 0.00 | 0.00 | 0.00 | 95 | 1021.0 |
| 20260506114051 | 11 | 0 | 0.0 | 1.6 | 0.00 | 0.00 | 0.00 | 95 | 1021.0 |
| 20260506113550 | 11 | 304 | 0.0 | 0.0 | 0.00 | 0.00 | 0.00 | 95 | 1021.0 |
| 20260506113101 | 11 | 0 | 0.0 | 0.0 | 0.00 | 0.00 | 0.00 | 95 | 1021.0 |
| 20260506112550 | 11 | 0 | 0.0 | 0.0 | 0.00 | 0.00 | 0.00 | 95 | 1020.9 |
| 20260506112049 | 11 | 0 | 0.0 | 0.0 | 0.00 | 0.00 | 0.00 | 95 | 1021.0 |
| 20260506111605 | 11 | 0 | 0.0 | 0.0 | 0.00 | 0.00 | 0.00 | 95 | 1020.9 |
| 20260506111050 | 11 | 0 | 0.0 | 0.0 | 0.00 | 0.00 | 0.00 | 95 | 1021.0 |
| 20260506110550 | 11 | 0 | 0.0 | 0.0 | 0.00 | 0.00 | 0.00 | 95 | 1020.9 |
| 20260506110107 | 11 | 0 | 0.0 | 1.6 | 0.00 | 0.00 | 0.00 | 95 | 1020.8 |
| 20260506105552 | 11 | 0 | 0.0 | 1.6 | 0.00 | 0.00 | 0.00 | 95 | 1020.8 |
| 20260506105050 | 11 | 0 | 0.0 | 1.6 | 0.00 | 0.00 | 0.00 | 95 | 1020.8 |
| 20260506104601 | 11 | 0 | 0.0 | 0.0 | 0.00 | 0.00 | 0.00 | 95 | 1020.8 |
| 20260506104050 | 11 | 0 | 0.0 | 1.6 | 0.00 | 0.00 | 0.00 | 95 | 1020.7 |
| 20260506103550 | 11 | 0 | 0.0 | 1.6 | 0.00 | 0.00 | 0.00 | 95 | 1020.6 |
| 20260506103059 | 11 | 0 | 0.0 | 1.6 | 0.00 | 0.00 | 0.00 | 95 | 1020.7 |
| 20260506102550 | 11 | 0 | 0.0 | 1.6 | 0.00 | 0.00 | 0.00 | 95 | 1020.7 |
| 20260506102050 | 11 | 0 | 0.0 | 1.6 | 0.00 | 0.00 | 0.00 | 95 | 1020.7 |
| 20260506101558 | 11 | 0 | 0.0 | 1.6 | 0.00 | 0.00 | 0.00 | 95 | 1020.7 |
| 20260506101050 | 11 | 0 | 0.0 | 1.6 | 0.00 | 0.00 | 0.00 | 95 | 1020.7 |
| 20260506100551 | 11 | 0 | 0.0 | 1.6 | 0.00 | 0.00 | 0.00 | 95 | 1020.7 |
| 20260506100100 | 11 | 0 | 0.0 | 1.6 | 0.00 | 0.00 | 0.00 | 95 | 1020.7 |
| 20260506095550 | 11 | 0 | 0.0 | 1.6 | 0.00 | 0.00 | 0.00 | 95 | 1020.7 |
| 20260506095051 | 11 | 0 | 0.0 | 1.6 | 0.00 | 0.00 | 0.00 | 95 | 1020.7 |
| 20260506094555 | 11 | 0 | 0.0 | 1.6 | 0.00 | 0.00 | 0.00 | 95 | 1020.7 |
| 20260506094049 | 11 | 0 | 0.0 | 1.6 | 0.00 | 0.00 | 0.00 | 95 | 1020.7 |
| 20260506093553 | 11 | 0 | 0.0 | 0.0 | 0.00 | 0.00 | 0.00 | 95 | 1020.7 |
| 20260506093051 | 11 | 0 | 0.0 | 0.0 | 0.00 | 0.00 | 0.00 | 95 | 1020.7 |
| 20260506092550 | 11 | 0 | 0.0 | 0.0 | 0.00 | 0.00 | 0.00 | 95 | 1020.7 |
| 20260506092049 | 11 | 0 | 0.0 | 0.0 | 0.00 | 0.00 | 0.00 | 95 | 1020.7 |
| 20260506091554 | 11 | 0 | 0.0 | 0.0 | 0.00 | 0.00 | 0.00 | 95 | 1020.7 |
| 20260506091051 | 11 | 0 | 0.0 | 0.0 | 0.00 | 0.00 | 0.00 | 95 | 1020.6 |
| 20260506090552 | 11 | 0 | 0.0 | 0.0 | 0.00 | 0.00 | 0.00 | 95 | 1020.8 |
| 20260506090050 | 10 | 0 | 0.0 | 0.0 | 0.00 | 0.00 | 0.00 | 95 | 1020.9 |
| 20260506085550 | 10 | 0 | 0.0 | 0.0 | 0.00 | 0.15 | 0.00 | 95 | 1020.7 |
| 20260506085051 | 10 | 0 | 0.0 | 0.0 | 0.00 | 0.15 | 0.00 | 95 | 1020.8 |
| 20260506084554 | 10 | 0 | 0.0 | 0.0 | 0.00 | 0.15 | 0.00 | 95 | 1020.8 |
| 20260506084051 | 10 | 0 | 0.0 | 0.0 | 0.00 | 0.15 | 0.00 | 95 | 1020.8 |
| 20260506083550 | 10 | 0 | 0.0 | 0.0 | 0.00 | 0.15 | 0.00 | 95 | 1020.7 |
| 20260506083058 | 10 | 0 | 0.0 | 0.0 | 0.00 | 0.15 | 0.00 | 95 | 1020.7 |
| 20260506082550 | 10 | 0 | 0.0 | 0.0 | 0.00 | 0.15 | 0.00 | 95 | 1020.7 |
| 20260506082049 | 10 | 0 | 0.0 | 0.0 | 0.00 | 0.15 | 0.00 | 94 | 1020.7 |
| 20260506081552 | 10 | 0 | 0.0 | 0.0 | 0.00 | 0.15 | 0.00 | 94 | 1020.7 |
| 20260506081049 | 10 | 0 | 0.0 | 0.0 | 0.00 | 0.15 | 0.00 | 94 | 1020.7 |
| 20260506080550 | 10 | 0 | 0.0 | 0.0 | 0.00 | 0.15 | 0.00 | 94 | 1020.7 |
| 20260506073058 | 11 | 0 | 0.0 | 0.0 | 0.00 | 0.33 | 0.00 | 94 | 1020.4 |
| 20260506072550 | 11 | 0 | 0.0 | 0.0 | 0.00 | 0.33 | 0.00 | 94 | 1020.3 |
| 20260506072051 | 11 | 0 | 0.0 | 0.0 | 0.00 | 0.33 | 0.00 | 94 | 1020.3 |
| 20260506071558 | 11 | 0 | 0.0 | 1.6 | 0.00 | 0.33 | 0.00 | 94 | 1020.2 |
| 20260506071049 | 11 | 0 | 0.0 | 1.6 | 0.00 | 0.33 | 0.00 | 94 | 1020.1 |
| 20260506070550 | 11 | 0 | 0.0 | 1.6 | 0.00 | 0.33 | 0.00 | 94 | 1020.2 |
| 20260506062050 | 10 | 0 | 0.0 | 1.6 | 0.00 | 0.51 | 0.33 | 94 | 1020.1 |
| 20260506061614 | 10 | 0 | 0.0 | 1.6 | 0.00 | 0.51 | 0.33 | 94 | 1020.1 |
| 20260506061057 | 10 | 261 | 0.0 | 0.0 | 0.00 | 0.51 | 0.33 | 95 | 1020.0 |
| 20260506060550 | 10 | 0 | 0.0 | 0.0 | 0.00 | 0.51 | 0.33 | 95 | 1020.0 |
| 20260506051053 | 10 | 0 | 0.0 | 1.6 | 0.00 | 0.53 | 0.33 | 94 | 1019.7 |
| 20260506050553 | 10 | 0 | 0.0 | 1.6 | 0.00 | 0.53 | 0.33 | 94 | 1019.7 |
| 20260506045056 | 10 | 236 | 0.0 | 1.6 | 0.00 | 0.61 | 0.33 | 94 | 1019.7 |
| 20260506044621 | 10 | 0 | 0.0 | 0.0 | 0.00 | 0.61 | 0.33 | 94 | 1019.5 |
| 20260506044053 | 10 | 0 | 0.0 | 0.0 | 0.00 | 0.61 | 0.33 | 93 | 1019.5 |
| 20260506043553 | 10 | 0 | 0.0 | 0.0 | 0.00 | 0.61 | 0.33 | 93 | 1019.4 |
| 20260506043054 | 10 | 0 | 0.0 | 0.0 | 0.00 | 0.61 | 0.33 | 93 | 1019.4 |
| 20260506042553 | 10 | 0 | 0.0 | 0.0 | 0.00 | 0.61 | 0.33 | 92 | 1019.3 |
| 20260506042053 | 10 | 0 | 0.0 | 0.0 | 0.00 | 0.61 | 0.33 | 92 | 1019.2 |
| 20260506041553 | 10 | 0 | 0.0 | 0.0 | 0.00 | 0.61 | 0.33 | 91 | 1019.1 |
| 20260506041049 | 10 | 0 | 0.0 | 0.0 | 0.00 | 0.61 | 0.33 | 91 | 1019.0 |
| 20260506040554 | 10 | 0 | 0.0 | 0.0 | 0.00 | 0.61 | 0.33 | 91 | 1018.8 |
| 20260506040056 | 11 | 0 | 0.0 | 0.0 | 0.00 | 0.61 | 0.33 | 91 | 1018.8 |
| 20260506035556 | 11 | 0 | 0.0 | 0.0 | 0.00 | 0.71 | 0.33 | 90 | 1018.7 |
| 20260506035054 | 11 | 0 | 0.0 | 0.0 | 0.00 | 0.71 | 0.33 | 90 | 1018.8 |
| 20260506034555 | 11 | 0 | 0.0 | 0.0 | 0.00 | 0.71 | 0.33 | 89 | 1018.6 |
| 20260506034053 | 11 | 0 | 0.0 | 0.0 | 0.00 | 0.71 | 0.33 | 88 | 1018.6 |
| 20260506033553 | 11 | 0 | 0.0 | 0.0 | 0.00 | 0.71 | 0.33 | 88 | 1018.6 |
| 20260506033054 | 11 | 0 | 0.0 | 0.0 | 0.00 | 0.71 | 0.33 | 87 | 1018.5 |
| 20260506032553 | 12 | 0 | 0.0 | 0.0 | 0.00 | 0.71 | 0.33 | 87 | 1018.5 |
| 20260506032053 | 12 | 0 | 0.0 | 1.6 | 0.00 | 0.71 | 0.33 | 87 | 1018.4 |
| 20260506031555 | 12 | 0 | 0.0 | 1.6 | 0.00 | 0.71 | 0.33 | 86 | 1018.3 |
| 20260506031053 | 12 | 274 | 0.0 | 1.6 | 0.00 | 0.71 | 0.33 | 85 | 1018.3 |
| 20260506030553 | 12 | 0 | 0.0 | 1.6 | 0.00 | 0.71 | 0.33 | 84 | 1018.1 |
| 20260506030057 | 13 | 0 | 0.0 | 1.6 | 0.00 | 0.71 | 0.33 | 83 | 1018.2 |
| 20260506025553 | 13 | 0 | 0.0 | 1.6 | 0.00 | 0.81 | 0.33 | 83 | 1018.1 |
| 20260506025053 | 13 | 0 | 0.0 | 1.6 | 0.00 | 0.81 | 0.33 | 82 | 1018.0 |
| 20260506024559 | 13 | 63 | 0.0 | 1.6 | 0.00 | 0.81 | 0.33 | 81 | 1018.1 |
| 20260506024050 | 14 | 55 | 0.0 | 1.6 | 0.00 | 0.81 | 0.33 | 80 | 1018.0 |
| 20260506023550 | 14 | 0 | 0.0 | 1.6 | 0.00 | 0.81 | 0.33 | 79 | 1018.0 |
| 20260506023100 | 15 | 0 | 0.0 | 4.8 | 0.00 | 0.81 | 0.33 | 78 | 1017.9 |
| 20260506022553 | 15 | 0 | 0.0 | 4.8 | 0.00 | 0.81 | 0.33 | 77 | 1017.9 |
| 20260506022049 | 15 | 323 | 0.0 | 4.8 | 0.00 | 0.81 | 0.33 | 76 | 1017.9 |
| 20260506021606 | 16 | 67 | 0.0 | 4.8 | 0.00 | 0.81 | 0.33 | 75 | 1017.8 |
| 20260506021050 | 16 | 0 | 0.0 | 8.0 | 0.00 | 0.81 | 0.33 | 76 | 1017.8 |
| 20260506020550 | 16 | 0 | 0.0 | 11.3 | 0.00 | 0.81 | 0.33 | 76 | 1017.8 |
| 20260506020053 | 16 | 324 | 3.2 | 11.3 | 0.00 | 0.81 | 0.33 | 74 | 1017.7 |
| 20260506015550 | 16 | 20 | 1.6 | 6.4 | 0.00 | 0.97 | 0.33 | 75 | 1017.7 |
| 20260506015050 | 16 | 255 | 1.6 | 6.4 | 0.00 | 0.97 | 0.33 | 76 | 1017.7 |
| 20260506014554 | 15 | 269 | 0.0 | 6.4 | 0.00 | 0.97 | 0.33 | 77 | 1017.6 |
| 20260506014049 | 15 | 285 | 1.6 | 6.4 | 0.00 | 0.97 | 0.33 | 76 | 1017.6 |
| 20260506013549 | 15 | 0 | 0.0 | 1.6 | 0.00 | 0.97 | 0.33 | 77 | 1017.8 |
| 20260506013054 | 15 | 0 | 0.0 | 9.7 | 0.00 | 0.97 | 0.33 | 78 | 1017.8 |
| 20260506012550 | 15 | 0 | 0.0 | 9.7 | 0.00 | 0.97 | 0.33 | 78 | 1017.8 |
| 20260506012050 | 15 | 287 | 0.0 | 3.2 | 0.00 | 0.97 | 0.33 | 78 | 1017.7 |
| 20260506011555 | 15 | 4 | 0.0 | 8.0 | 0.00 | 0.97 | 0.33 | 78 | 1017.7 |
| 20260506011051 | 15 | 0 | 0.0 | 8.0 | 0.00 | 0.97 | 0.33 | 78 | 1017.7 |
| 20260506010550 | 15 | 278 | 0.0 | 3.2 | 0.00 | 0.97 | 0.33 | 77 | 1017.7 |
| 20260506010115 | 15 | 0 | 0.0 | 3.2 | 0.00 | 0.97 | 0.33 | 77 | 1017.7 |
| 20260506005552 | 15 | 54 | 0.0 | 1.6 | 0.00 | 1.12 | 0.33 | 77 | 1017.6 |
| 20260506005050 | 15 | 0 | 0.0 | 1.6 | 0.00 | 1.12 | 0.33 | 77 | 1017.6 |
| 20260506004554 | 15 | 0 | 0.0 | 1.6 | 0.00 | 1.12 | 0.33 | 77 | 1017.5 |
| 20260506004051 | 15 | 0 | 0.0 | 3.2 | 0.00 | 1.12 | 0.33 | 77 | 1017.6 |
| 20260506003550 | 15 | 0 | 0.0 | 3.2 | 0.00 | 1.12 | 0.33 | 78 | 1017.5 |
| 20260506003054 | 15 | 298 | 0.0 | 4.8 | 0.00 | 1.12 | 0.33 | 78 | 1017.5 |
| 20260506002549 | 15 | 10 | 0.0 | 4.8 | 0.00 | 1.12 | 0.33 | 78 | 1017.5 |
| 20260506002049 | 15 | 64 | 0.0 | 3.2 | 0.00 | 1.12 | 0.33 | 77 | 1017.5 |
| 20260506001555 | 15 | 264 | 0.0 | 9.7 | 0.00 | 1.12 | 0.33 | 78 | 1017.3 |
| 20260506001049 | 15 | 0 | 0.0 | 9.7 | 0.00 | 1.12 | 0.33 | 78 | 1017.4 |
| 20260506000551 | 15 | 257 | 1.6 | 8.0 | 0.00 | 1.12 | 0.33 | 78 | 1017.4 |
| 20260506000056 | 15 | 328 | 3.2 | 8.0 | 0.00 | 1.12 | 0.33 | 77 | 1017.3 |
| 20260505235549 | 16 | 346 | 0.0 | 4.8 | 0.00 | 1.17 | 0.33 | 77 | 1017.3 |
| 20260505235052 | 16 | 0 | 1.6 | 8.0 | 0.00 | 1.17 | 0.33 | 77 | 1017.3 |
| 20260505234607 | 16 | 248 | 0.0 | 8.0 | 0.00 | 1.17 | 0.33 | 78 | 1017.3 |
| 20260505234051 | 15 | 257 | 1.6 | 8.0 | 0.00 | 1.17 | 0.33 | 77 | 1017.3 |
| 20260505233549 | 15 | 322 | 1.6 | 9.7 | 0.00 | 1.17 | 0.33 | 77 | 1017.3 |
| 20260505233049 | 15 | 299 | 1.6 | 11.3 | 0.00 | 1.17 | 0.33 | 77 | 1017.3 |
| 20260505232555 | 16 | 313 | 1.6 | 11.3 | 0.00 | 1.17 | 0.33 | 75 | 1017.3 |
| 20260505232050 | 16 | 296 | 1.6 | 12.9 | 0.00 | 1.17 | 0.33 | 76 | 1017.2 |
| 20260505231556 | 16 | 68 | 4.8 | 12.9 | 0.00 | 1.17 | 0.33 | 75 | 1017.3 |
| 20260505231050 | 16 | 281 | 1.6 | 9.7 | 0.00 | 1.17 | 0.33 | 76 | 1017.2 |
| 20260505230549 | 16 | 250 | 1.6 | 9.7 | 0.00 | 1.17 | 0.33 | 76 | 1017.3 |
| 20260505230053 | 16 | 311 | 3.2 | 11.3 | 0.00 | 1.17 | 0.33 | 75 | 1017.2 |
| 20260505225551 | 16 | 314 | 3.2 | 11.3 | 0.00 | 1.17 | 0.33 | 74 | 1017.3 |
| 20260505225052 | 16 | 306 | 1.6 | 11.3 | 0.00 | 1.17 | 0.33 | 76 | 1017.3 |
| 20260505224555 | 16 | 274 | 1.6 | 8.0 | 0.00 | 1.17 | 0.33 | 74 | 1017.3 |
| 20260505224054 | 16 | 307 | 3.2 | 11.3 | 0.00 | 1.17 | 0.33 | 73 | 1017.4 |
| 20260505223549 | 16 | 298 | 3.2 | 11.3 | 0.00 | 1.17 | 0.33 | 73 | 1017.4 |
| 20260505223053 | 16 | 75 | 3.2 | 8.0 | 0.00 | 1.17 | 0.33 | 72 | 1017.4 |
| 20260505222551 | 17 | 8 | 1.6 | 11.3 | 0.00 | 1.17 | 0.33 | 73 | 1017.4 |
| 20260505222050 | 17 | 300 | 1.6 | 11.3 | 0.00 | 1.17 | 0.33 | 73 | 1017.4 |
| 20260505221551 | 17 | 293 | 1.6 | 12.9 | 0.00 | 1.17 | 0.33 | 71 | 1017.4 |
| 20260505221052 | 17 | 0 | 1.6 | 12.9 | 0.00 | 1.17 | 0.33 | 73 | 1017.4 |
| 20260505220549 | 17 | 0 | 1.6 | 6.4 | 0.00 | 1.17 | 0.33 | 73 | 1017.3 |
| 20260505220056 | 17 | 326 | 0.0 | 11.3 | 0.00 | 1.17 | 0.33 | 72 | 1017.4 |
| 20260505215549 | 17 | 39 | 0.0 | 11.3 | 0.00 | 1.17 | 0.33 | 72 | 1017.3 |
| 20260505215054 | 17 | 305 | 1.6 | 12.9 | 0.00 | 1.17 | 0.33 | 71 | 1017.3 |
| 20260505214613 | 17 | 315 | 3.2 | 12.9 | 0.00 | 1.17 | 0.33 | 70 | 1017.4 |
| 20260505214051 | 18 | 261 | 3.2 | 12.9 | 0.00 | 1.17 | 0.33 | 69 | 1017.4 |
| 20260505213553 | 18 | 1 | 1.6 | 8.0 | 0.00 | 1.17 | 0.33 | 69 | 1017.4 |
| 20260505213103 | 17 | 342 | 0.0 | 8.0 | 0.00 | 1.17 | 0.33 | 71 | 1017.4 |
| 20260505212549 | 17 | 260 | 3.2 | 8.0 | 0.00 | 1.17 | 0.33 | 71 | 1017.4 |
| 20260505212049 | 17 | 0 | 1.6 | 8.0 | 0.00 | 1.17 | 0.33 | 71 | 1017.5 |
| 20260505211553 | 17 | 0 | 0.0 | 11.3 | 0.00 | 1.17 | 0.33 | 71 | 1017.6 |
| 20260505211049 | 17 | 98 | 0.0 | 11.3 | 0.00 | 1.17 | 0.33 | 71 | 1017.6 |
| 20260505210552 | 18 | 301 | 1.6 | 8.0 | 0.00 | 1.17 | 0.33 | 67 | 1017.5 |
| 20260505210059 | 17 | 77 | 0.0 | 8.0 | 0.00 | 1.17 | 0.33 | 72 | 1017.5 |
| 20260505205549 | 17 | 341 | 3.2 | 8.0 | 0.00 | 1.17 | 0.33 | 70 | 1017.5 |
| 20260505205053 | 17 | 32 | 1.6 | 8.0 | 0.00 | 1.17 | 0.33 | 70 | 1017.6 |
| 20260505204559 | 17 | 0 | 1.6 | 9.7 | 0.00 | 1.17 | 0.33 | 70 | 1017.4 |
| 20260505204049 | 17 | 270 | 0.0 | 9.7 | 0.00 | 1.17 | 0.33 | 70 | 1017.5 |
| 20260505203551 | 17 | 66 | 1.6 | 6.4 | 0.00 | 1.17 | 0.33 | 70 | 1017.5 |
| 20260505203056 | 18 | 20 | 0.0 | 8.0 | 0.00 | 1.17 | 0.33 | 70 | 1017.5 |
| 20260505202549 | 17 | 340 | 1.6 | 8.0 | 0.00 | 1.17 | 0.33 | 68 | 1017.4 |
| 20260505202051 | 18 | 349 | 1.6 | 8.0 | 0.00 | 1.17 | 0.33 | 69 | 1017.5 |
| 20260505201555 | 18 | 309 | 0.0 | 4.8 | 0.00 | 1.17 | 0.33 | 68 | 1017.6 |
| 20260505201053 | 17 | 15 | 0.0 | 4.8 | 0.00 | 1.17 | 0.33 | 71 | 1017.7 |
| 20260505200553 | 17 | 37 | 0.0 | 8.0 | 0.00 | 1.17 | 0.33 | 70 | 1017.7 |
| 20260505200104 | 17 | 8 | 0.0 | 8.0 | 0.00 | 1.17 | 0.33 | 70 | 1017.7 |
| 20260505195553 | 17 | 270 | 0.0 | 6.4 | 0.00 | 1.17 | 0.33 | 71 | 1017.8 |
| 20260505195053 | 17 | 319 | 1.6 | 6.4 | 0.00 | 1.17 | 0.33 | 70 | 1017.8 |
| 20260505194605 | 17 | 321 | 1.6 | 6.4 | 0.00 | 1.17 | 0.33 | 70 | 1017.8 |
| 20260505194053 | 17 | 335 | 1.6 | 6.4 | 0.00 | 1.17 | 0.33 | 70 | 1017.9 |
| 20260505193552 | 17 | 0 | 0.0 | 4.8 | 0.00 | 1.17 | 0.33 | 69 | 1017.8 |
| 20260505193057 | 17 | 360 | 1.6 | 6.4 | 0.00 | 1.17 | 0.33 | 69 | 1017.8 |
| 20260505192552 | 17 | 292 | 1.6 | 6.4 | 0.00 | 1.17 | 0.33 | 72 | 1017.7 |
| 20260505192055 | 17 | 73 | 0.0 | 6.4 | 0.00 | 1.17 | 0.33 | 73 | 1017.7 |
| 20260505191557 | 17 | 355 | 1.6 | 12.9 | 0.00 | 1.17 | 0.33 | 74 | 1017.7 |
| 20260505191054 | 16 | 332 | 0.0 | 12.9 | 0.00 | 1.17 | 0.33 | 74 | 1017.7 |
| 20260505190553 | 17 | 299 | 1.6 | 12.9 | 0.00 | 1.17 | 0.33 | 73 | 1017.7 |
| 20260505190055 | 16 | 326 | 0.0 | 14.5 | 0.00 | 1.17 | 0.33 | 74 | 1017.6 |
| 20260505185553 | 16 | 277 | 3.2 | 14.5 | 0.00 | 1.17 | 0.33 | 75 | 1017.8 |